Weather Roundup
Issued by NWS Chicago, IL

Home | Current Version | Previous Version | Text Only | Print | Product List | Glossary Off
Versions: 1 2 3 4 5 6 7 8 9 10 11 12 13 14 15 16 17 18 19 20 21 22 23 24 25 26 27 28 29 30 31 32 33 34 35 36 37 38 39 40 41 42 43 44 45 46 47 48 49 50

000
NZUS59 KLOT 051600
HRRLOT

CHICAGO AREA WEATHER ROUNDUP
NATIONAL WEATHER SERVICE CHICAGO/ROMEOVILLE IL
1100 AM CDT SUN JUL 05 2015

NOTE: "FAIR" INDICATES FEW OR NO CLOUDS BELOW 12,000 FEET WITH NO
SIGNIFICANT WEATHER AND/OR OBSTRUCTIONS TO VISIBILITY.

* THESE STATIONS ARE NOT UNDER NWS QUALITY CONTROL. THEY ALSO MAY NOT
  REPORT WEATHER SUCH AS PRECIPITATION OR FOG.

ILZ005-006-012>014-019>023-051700-
NORTHEAST ILLINOIS

CITY           SKY/WX    TMP DP  RH WIND       PRES   REMARKS
OHARE          MOSUNNY   78  59  51 SW9       30.08S
MIDWAY         PTSUNNY   81  61  50 SW8       30.09R HX  82
AURORA         SUNNY     78  62  57 S5        30.09S HX  80
WAUKEGAN       NOT AVBL
DUPAGE AIRPORT SUNNY     78  61  55 SW7       30.08F HX  80
WHEELING       MOSUNNY   79  59  50 SW8       30.09F HX  80
NORTHERLY IS     N/A     73  64  73 E6          N/A
$$

WIZ051-052-058>065-066-070>072-051700-
SOUTHEAST WISCONSIN

CITY           SKY/WX    TMP DP  RH WIND       PRES   REMARKS
MILWAUKEE      MOSUNNY   79  60  52 S6        30.07S HX  80
KENOSHA*       MOSUNNY   79  62  56 VRB6      30.08F HX  80
RACINE*        MOSUNNY   79  60  52 SW8       30.09S HX  80
WAUKESHA       MOSUNNY   73  61  64 SW7       30.09S
$$

INZ001>003-010>013-019-020-051700-
NORTHWEST INDIANA

CITY           SKY/WX    TMP DP  RH WIND       PRES   REMARKS
GARY*          MOSUNNY  N/A N/A N/A CALM      30.10S
MICHIGAN CITY* NOT AVBL
RENSSELAER*    NOT AVBL
$$

LMZ740>746-051700-
SOUTHERN LAKE MICHIGAN

STATION/POSITION TIME  SKY/WX   TEMP WIND        PRES    VSBY
                                AIR  DIR/SP/G
                 (UTC)          (F)  (DEG/KT/KT) (MB)    (MI)
HARRISON CRIB    1500            70  100/  7/  9   N/A
BURNHAM HARBOR   1500            73  100/  4/  6   N/A
CALUMET HARBOR   1500            77  190/  3/  6   N/A
BURNS HARBOR     1500            71  350/  2/  4 1019.6F
MICHIGAN CITY    1500            72  280/  2/  3   N/A
$$

ABBREVIATIONS USED IN REMARKS
   TC - TEMPERATURE IN CELSIUS
  WCI - WIND CHILL INDEX
   HX - HEAT INDEX
  VSB - VISIBILITY
$$


USA.gov is the U.S. government's official web portal to all federal, state and local government web resources and services.